Weather History for Saginaw Browne, MI

Change the Weather History Date:

Sunday, January 20, 2013

  Actual Average (KMBS) Record (KMBS)
Temperature  
Mean Temperature 24 °F 22 °F  
Max Temperature 33 °F 29 °F 42 °F (2006)
Min Temperature 14 °F 15 °F 0 °F (2004)
Degree Days  
Heating Degree Days 42    
Month to date heating degree days  
Since 1 July heating degree days  
Cooling Degree Days 0    
Month to date cooling degree days  
Year to date cooling degree days  
Moisture  
Dew Point 11 °F    
Average Humidity 67    
Maximum Humidity 93    
Minimum Humidity 58    
Precipitation  
Precipitation 0.00 in 0.05 in 0.19 in (2006)
Month to date precipitation 1.19  
Year to date precipitation 1.19  
Snow  
Snow 0.00 in - - ()
Month to date snowfall  
Since 1 July snowfall  
Snow Depth -    
Sea Level Pressure  
Sea Level Pressure 29.99 in    
Wind  
Wind Speed 19 mph (West)    
Max Wind Speed 32 mph    
Max Gust Speed 44 mph    
Visibility 10 miles    
Events Snow    
T = Trace of Precipitation, MM = Missing Value Source: NWS Daily Summary

Daily Weather History Graph

Daily Weather History Graph

Search for Another Location

Airport:

Trip Planner

Search our weather history database for the weather conditions in past years. The results will help you decide how hot, cold, wet, or windy it might be!

Date:

Astronomy

Jan. 20, 2013 Rise Set
Actual Time 8:02 AM EST 5:31 PM EST
Civil Twilight 7:30 AM EST 6:02 PM EST
Nautical Twilight 6:55 AM EST 6:37 PM EST
Astronomical Twilight 6:21 AM EST 7:11 PM EST
Moon 12:32 PM EST (1/20) 2:32 AM EST (1/20)
Length of Visible Light 10h 32m
Length of Day
9h 29m
Waxing Gibbous, 66% of the Moon is Illuminated
Jan 20
Waxing Gibbous
Jan 26
Full
Feb 3
Last Quarter
Feb 10
New
Feb 17
First Quarter

Hourly Weather History & Observations

Time (EST) Temp. Windchill Dew Point Humidity Pressure Visibility Wind Dir Wind Speed Gust Speed Precip Events Conditions
12:13 AM 33.8 °F 23.2 °F 32.0 °F 93% 29.50 in 2.5 mi West 17.3 mph 29.9 mph N/A Snow Light Snow
12:33 AM 33.8 °F 23.9 °F 32.0 °F 93% 29.48 in 10.0 mi West 15.0 mph 20.7 mph N/A   Overcast
12:53 AM 33.8 °F 20.8 °F 28.4 °F 81% 29.47 in 10.0 mi West 26.5 mph 34.5 mph N/A   Scattered Clouds
1:13 AM 33.8 °F 21.9 °F 28.4 °F 81% 29.49 in 10.0 mi West 21.9 mph 31.1 mph N/A   Clear
1:33 AM 33.8 °F 20.5 °F 28.4 °F 81% 29.51 in 10.0 mi West 27.6 mph 35.7 mph N/A   Mostly Cloudy
1:53 AM 32.0 °F 17.4 °F 24.8 °F 75% 29.54 in 10.0 mi West 31.1 mph 43.7 mph N/A   Scattered Clouds
3:34 AM 26.6 °F 10.0 °F 19.4 °F 74% 29.69 in 10.0 mi West 31.1 mph 43.7 mph N/A   Overcast
3:54 AM 26.6 °F 10.6 °F 17.6 °F 69% 29.71 in 10.0 mi West 28.8 mph 43.7 mph N/A   Mostly Cloudy
4:14 AM 24.8 °F 9.0 °F 17.6 °F 74% 29.73 in 10.0 mi West 25.3 mph 33.4 mph N/A   Mostly Cloudy
4:34 AM 23.0 °F 8.3 °F 15.8 °F 74% 29.76 in 10.0 mi West 19.6 mph 39.1 mph N/A   Mostly Cloudy
4:54 AM 23.0 °F 6.0 °F 14.0 °F 68% 29.77 in 10.0 mi West 27.6 mph 38.0 mph N/A   Mostly Cloudy
5:14 AM 21.2 °F 3.9 °F 12.2 °F 68% 29.79 in 10.0 mi WNW 26.5 mph 41.4 mph N/A   Scattered Clouds
5:34 AM 21.2 °F 2.4 °F 12.2 °F 68% 29.80 in 10.0 mi WNW 32.2 mph 39.1 mph N/A   Mostly Cloudy
5:55 AM 21.2 °F 4.9 °F 15.8 °F 80% 29.84 in 1.8 mi WNW 23.0 mph 33.4 mph N/A Snow Light Snow
6:15 AM 17.6 °F -2.2 °F 10.4 °F 73% 29.86 in 2.0 mi West 31.1 mph 39.1 mph N/A Snow Light Snow
6:35 AM 17.6 °F -1.0 °F 5.0 °F 58% 29.89 in 10.0 mi West 26.5 mph 36.8 mph N/A   Scattered Clouds
6:55 AM 17.6 °F 0.5 °F 5.0 °F 58% 29.91 in 10.0 mi West 21.9 mph 32.2 mph N/A   Clear
7:15 AM 17.6 °F 0.5 °F 5.0 °F 58% 29.92 in 10.0 mi West 21.9 mph 29.9 mph N/A   Clear
7:35 AM 17.6 °F 0.9 °F 5.0 °F 58% 29.94 in 10.0 mi West 20.7 mph 28.8 mph N/A   Clear
8:15 AM 17.6 °F 2.2 °F 8.6 °F 68% 29.97 in 10.0 mi West 17.3 mph 29.9 mph N/A   Clear
8:35 AM 17.6 °F 2.2 °F 8.6 °F 68% 29.99 in 10.0 mi West 17.3 mph 23.0 mph N/A   Clear
8:50 AM 17.6 °F 0.1 °F 8.6 °F 68% 30.01 in 10.0 mi West 23.0 mph 29.9 mph N/A   Clear
9:11 AM 17.6 °F 1.3 °F 8.6 °F 68% 30.02 in 10.0 mi West 19.6 mph 27.6 mph N/A   Clear
9:31 AM 19.4 °F 4.1 °F 10.4 °F 68% 30.04 in 10.0 mi West 18.4 mph 26.5 mph N/A   Clear
10:31 AM 19.4 °F 3.2 °F 10.4 °F 68% 30.06 in 10.0 mi West 20.7 mph 26.5 mph N/A   Scattered Clouds
10:51 AM 21.2 °F 6.0 °F 10.4 °F 63% 30.06 in 10.0 mi WNW 19.6 mph 27.6 mph N/A   Scattered Clouds
11:11 AM 21.2 °F 6.0 °F 10.4 °F 63% 30.07 in 10.0 mi West 19.6 mph 24.2 mph N/A   Scattered Clouds
11:31 AM 21.2 °F 5.2 °F 10.4 °F 63% 30.09 in 10.0 mi WNW 21.9 mph 27.6 mph N/A   Overcast
11:51 AM 19.4 °F 2.5 °F 8.6 °F 63% 30.10 in 10.0 mi WNW 23.0 mph 27.6 mph N/A   Mostly Cloudy
12:11 PM 21.2 °F 5.6 °F 10.4 °F 63% 30.10 in 10.0 mi West 20.7 mph 25.3 mph N/A   Mostly Cloudy
12:32 PM 19.4 °F 5.5 °F 10.4 °F 68% 30.10 in 10.0 mi West 15.0 mph 23.0 mph N/A   Overcast
1:12 PM 21.2 °F 6.8 °F 10.4 °F 63% 30.09 in 10.0 mi West 17.3 mph - N/A   Overcast
1:32 PM 19.4 °F 4.1 °F 10.4 °F 68% 30.08 in 10.0 mi West 18.4 mph 26.5 mph N/A   Overcast
1:52 PM 19.4 °F 5.5 °F 8.6 °F 63% 30.09 in 10.0 mi WNW 15.0 mph 21.9 mph N/A   Overcast
2:12 PM 19.4 °F 5.0 °F 10.4 °F 68% 30.09 in 10.0 mi West 16.1 mph 21.9 mph N/A   Overcast
2:32 PM 19.4 °F 6.0 °F 10.4 °F 68% 30.10 in 10.0 mi West 13.8 mph 19.6 mph N/A   Overcast
2:52 PM 19.4 °F 4.5 °F 10.4 °F 68% 30.11 in 7.0 mi WNW 17.3 mph 23.0 mph N/A   Overcast
3:32 PM 19.4 °F 4.5 °F 8.6 °F 63% 30.11 in 10.0 mi West 17.3 mph 24.2 mph N/A   Overcast
3:53 PM 19.4 °F 5.0 °F 10.4 °F 68% 30.11 in 10.0 mi WNW 16.1 mph 20.7 mph N/A   Overcast
4:13 PM 19.4 °F 7.2 °F 10.4 °F 68% 30.11 in 10.0 mi West 11.5 mph - N/A   Overcast
5:13 PM 19.4 °F 7.2 °F 8.6 °F 63% 30.13 in 10.0 mi WNW 11.5 mph - N/A   Overcast
5:33 PM 19.4 °F 8.6 °F 8.6 °F 63% 30.13 in 10.0 mi WNW 9.2 mph 16.1 mph N/A   Overcast
5:53 PM 17.6 °F 2.7 °F 8.6 °F 68% 30.14 in 10.0 mi West 16.1 mph - N/A   Overcast
6:13 PM 17.6 °F 5.0 °F 6.8 °F 63% 30.14 in 10.0 mi West 11.5 mph 18.4 mph N/A   Overcast
6:33 PM 17.6 °F 5.7 °F 6.8 °F 63% 30.14 in 10.0 mi WNW 10.4 mph - N/A   Overcast
6:54 PM 17.6 °F 3.7 °F 6.8 °F 63% 30.15 in 10.0 mi West 13.8 mph 17.3 mph N/A   Overcast
7:14 PM 17.6 °F 5.0 °F 5.0 °F 58% 30.15 in 10.0 mi West 11.5 mph - N/A   Mostly Cloudy
7:34 PM 17.6 °F 3.2 °F 5.0 °F 58% 30.16 in 10.0 mi West 15.0 mph - N/A   Overcast
7:54 PM 17.6 °F 6.4 °F 5.0 °F 58% 30.16 in 10.0 mi West 9.2 mph - N/A   Overcast
8:14 PM 17.6 °F 6.4 °F 6.8 °F 63% 30.16 in 10.0 mi West 9.2 mph - N/A   Overcast
8:34 PM 17.6 °F 5.7 °F 5.0 °F 58% 30.16 in 10.0 mi West 10.4 mph 16.1 mph N/A   Overcast
8:54 PM 17.6 °F 5.0 °F 5.0 °F 58% 30.15 in 10.0 mi West 11.5 mph - N/A   Overcast
9:14 PM 15.8 °F 2.7 °F 5.0 °F 62% 30.15 in 10.0 mi West 11.5 mph - N/A   Overcast
9:34 PM 14.0 °F 2.0 °F 5.0 °F 67% 30.15 in 10.0 mi West 9.2 mph - N/A   Mostly Cloudy
9:55 PM 14.0 °F 2.9 °F 5.0 °F 67% 30.15 in 10.0 mi West 8.1 mph - N/A   Mostly Cloudy
10:15 PM 14.0 °F 2.0 °F 5.0 °F 67% 30.15 in 10.0 mi West 9.2 mph - N/A   Mostly Cloudy
10:35 PM 14.0 °F 1.2 °F 5.0 °F 67% 30.14 in 10.0 mi West 10.4 mph - N/A   Mostly Cloudy
10:55 PM 14.0 °F 3.9 °F 5.0 °F 67% 30.14 in 10.0 mi West 6.9 mph - N/A   Scattered Clouds
11:15 PM 14.0 °F 5.1 °F 5.0 °F 67% 30.14 in 10.0 mi West 5.8 mph - N/A   Scattered Clouds
11:35 PM 14.0 °F 5.1 °F 5.0 °F 67% 30.13 in 10.0 mi West 5.8 mph - N/A   Mostly Cloudy
11:55 PM 14.0 °F 8.2 °F 5.0 °F 67% 30.13 in 10.0 mi WSW 3.5 mph - N/A   Mostly Cloudy